ZHUHAI-1 01 (CAS 4A) (42761 NORAD) Tracking and Keplerian Element Data

This shows tracking and keplerian element data for the satellite.

Feedback or suggestion? Click here.




ElementValue
Catalog42761
NameZHUHAI-1 01 (CAS 4A)
Epoch Orbit10206
Epoch Day111.68082815
Epoch Year2019
RAAN188.9539
Inclination43.0186
Eccentricity0.0012182
Argument of Perigee250.9787
Mean Anonmoly240.745
Mean Motion15.09620816
Decay Rate2.75E-06
L11 42761U 17034D 19111.68082815 .00000275 00000-0 30305-4 0 9995
L22 42761 43.0186 188.9539 0012182 250.9787 240.7450 15.09620816102068

Live tracking and technical data element details for ZHUHAI-1 01 (CAS 4A) (NORAD 42761). ZHUHAI-1 01 (CAS 4A) can be tracked NOW for your location showing map with azimuth and elevation plus other details from your city location.

Track the satellite on the map from your city or location and see movement details for azimuth, elevation, latitude, longitude, range, height, and movement on the map or in text.







IsCatalogInMostPopularTable: catalog: 42761, numindb: 236
Update: records affected: 1



GetName: 42761 ZHUHAI-1 01 (CAS 4A)

Hit Count: updated at: Tue, 23 Apr 2019 03:05:14 GMT